Location: Yellowknife
(62.4500°N, 114.3500°W)
Time: 21:19:41
(UTC-07:00)

N. Korean satellite - Visible Passes

Search period start: 21 January 2018 00:00
Search period end: 31 January 2018 00:00
Orbit: 458 x 515 km, 97.2° (Epoch: 21 January)

Date Brightness Start Highest point End Pass type
(mag) Time Alt. Az. Time Alt. Az. Time Alt. Az.
21 Jan 7.3 07:28:16 10° NNE 07:31:41 53° ESE 07:35:04 10° S visible
21 Jan 6.8 18:14:44 10° S 18:18:17 71° WSW 18:21:49 10° NNW visible
21 Jan 10.0 19:50:51 10° WSW 19:52:28 13° W 19:54:06 10° WNW visible
22 Jan 8.4 07:04:42 10° NNE 07:07:54 33° E 07:11:04 10° SSE visible
22 Jan 6.4 17:51:04 10° SSE 17:54:36 73° ENE 17:58:07 10° NNW visible
22 Jan 9.5 19:25:56 10° SW 19:28:32 19° W 19:31:07 10° NW visible
23 Jan 9.2 06:41:17 10° NE 06:44:02 22° E 06:46:46 10° SE visible
23 Jan 6.5 08:14:27 10° NNE 08:17:53 60° WNW 08:21:18 10° SSW visible
23 Jan 6.8 17:27:34 10° SE 17:30:58 46° ENE 17:34:20 10° N visible
23 Jan 8.7 19:01:33 10° SSW 19:04:39 28° W 19:07:45 10° NNW visible
24 Jan 9.9 06:18:07 10° NE 06:20:06 14° E 06:22:05 10° ESE visible
24 Jan 6.5 07:50:43 10° NNE 07:54:12 85° ESE 07:57:40 10° SSW visible
24 Jan 7.3 17:04:15 10° ESE 17:07:23 30° ENE 17:10:30 10° N visible
24 Jan 7.8 18:37:26 10° S 18:40:50 44° W 18:44:13 10° NNW visible
25 Jan 7.4 07:27:04 10° NNE 07:30:28 52° E 07:33:52 10° S visible
25 Jan 6.8 18:13:34 10° S 18:17:05 72° WSW 18:20:35 10° NNW visible
25 Jan 10.0 19:49:38 10° WSW 19:51:15 13° W 19:52:53 10° WNW visible
26 Jan 8.4 07:03:29 10° NNE 07:06:40 32° E 07:09:50 10° SSE visible
26 Jan 6.4 17:49:53 10° SSE 17:53:23 71° ENE 17:56:52 10° NNW visible
26 Jan 9.5 19:24:44 10° SW 19:27:18 19° W 19:29:52 10° NW visible
27 Jan 9.3 06:40:03 10° NE 06:42:48 21° E 06:45:31 10° SE visible
27 Jan 6.5 08:13:12 10° NNE 08:16:39 61° WNW 08:20:04 10° SSW visible
27 Jan 6.8 17:26:23 10° SE 17:29:44 45° ENE 17:33:05 10° N visible
27 Jan 8.7 19:00:20 10° SSW 19:03:25 28° W 19:06:30 10° NNW visible
28 Jan 9.9 06:16:54 10° NE 06:18:51 14° E 06:20:48 10° ESE visible
28 Jan 6.5 07:49:28 10° NNE 07:52:58 84° ESE 07:56:27 10° SSW visible
28 Jan 7.7 18:36:13 10° S 18:39:35 44° W 18:42:57 10° NNW visible
29 Jan 7.5 07:25:48 10° NNE 07:29:12 51° E 07:32:36 10° S visible
29 Jan 6.7 18:12:20 10° S 18:15:50 73° WSW 18:19:18 10° NNW visible
29 Jan 10.1 19:48:22 10° WSW 19:49:59 13° W 19:51:37 10° WNW visible
30 Jan 8.5 07:02:13 10° NNE 07:05:23 32° E 07:08:34 10° SSE visible
30 Jan 6.4 17:48:39 10° SSE 17:52:07 70° ENE 17:55:35 10° NNW visible
30 Jan 9.5 19:23:28 10° SW 19:26:02 19° W 19:28:36 10° NW visible
